Location: Heidgraben
(53.7081°N, 9.6576°E)
Time: 08:20:35
(UTC+00:00)

Cosmos 1680 Rocket - Pass Details

Date: 05 July 2020
Orbit: 760 x 781 km, 74.1° (Epoch: 14 August)

Event Time Altitude Azimuth Distance (km) Brightness Sun altitude
Exits shadow 23:15:55 - 228° (SW) 2,716 6.0 -13.6°
Reaches altitude 10° 23:16:57 10° 231° (SW) 2,334 5.7 -13.6°
Maximum altitude 23:22:03 46° 305° (NW) 1,043 4.5 -13.6°
Drops below altitude 10° 23:27:12 10° 19° (NNE) 2,348 7.2 -13.6°
Sets 23:29:42 0° 25° (NNE) 3,278 8.0 -13.6°
